This demonstration page uses our WeatherBlox Daily Observations layout. Learn more.

Left ArrowRight Arrow

36.17497, -115.13722

Hourly Observations for September 14, 2017

Temp ( °F °C ) Dew Point ( °F °C ) Humidity (%) Winds ( mph kmh ) Pressure ( in mb ) Visibility ( mi km ) Precip ( " mm )
12:53 am 00:53 Clear 80 26.7 55 12.8 42 42 NNE 5 7 29.70 1006 10 16 0.00 0.00
1:53 am 01:53 Clear 78 25.6 59 15 52 52 NNW 5 7 29.69 1005 10 16 0.00 0.00
2:53 am 02:53 Clear 78 25.6 58 14.4 50 50 Calm 29.67 1005 10 16 0.00 0.00
3:53 am 03:53 Clear 78 25.6 56 13.3 47 47 W 3 6 29.67 1005 10 16 0.00 0.00
4:53 am 04:53 Mostly Cloudy 78 25.6 53 11.7 42 42 SW 6 9 29.67 1005 10 16 0.00 0.00
5:53 am 05:53 Clear 78 25.6 46 7.8 32 32 S 8 13 29.68 1005 10 16 0.00 0.00
6:53 am 06:53 Sunny 77 25 44 6.7 31 31 WSW 3 6 29.69 1006 10 16 0.00 0.00
7:53 am 07:53 Sunny 77 25 36 2.2 23 23 S 10 17 29.70 1006 10 16 0.00 0.00
8:53 am 08:53 Sunny 79 26.1 37 2.8 22 22 S 8 13 29.71 1006 10 16 0.00 0.00
9:37 am 09:37 Sunny with Nearby Thunderstorms 80 26.7 38 3.3 22 22 SSE 8 13 29.62 1003 10 16 0.00 0.00
9:53 am 09:53 Sunny 81 27.2 38 3.3 21 21 SE 8 13 29.75 1007 10 16 0.00 0.00
10:53 am 10:53 Sunny 82 27.8 36 2.2 19 19 SSE 10 17 29.75 1007 10 16 0.00 0.00
11:53 am 11:53 Sunny 84 28.9 32 0 15 15 VRB 3 6 29.72 1007 10 16 0.00 0.00
12:21 pm 12:21 Sunny with Nearby Thunderstorms 85 29.4 28 -2.2 13 13 SSW 7 11 29.59 1002 10 16 0.00 0.00
12:32 pm 12:32 Sunny with Thunderstorms 86 30 27 -2.8 12 12 SSW 9 15 29.56 1001 10 16 0.00 0.00
12:53 pm 12:53 Sunny with Thunderstorms 86 30 28 -2.2 12 12 SSW 9 15 29.70 1006 10 16 0.00 0.00
1:29 pm 13:29 Sunny with Nearby Thunderstorms 87 30.6 30 -1.1 13 13 SE 12 19 29.53 1000 10 16 0.00 0.00
1:50 pm 13:50 Sunny 88 31 27 -3 11 11 S 8 13 29.53 1000 10 16 0.00 0.00
1:53 pm 13:53 Sunny 87 30.6 27 -2.8 11 11 SSW 8 13 29.69 1005 10 16 0.00 0.00
2:53 pm 14:53 Sunny 88 31.1 28 -2.2 11 11 S 6 9 29.67 1005 10 16 0.00 0.00
3:53 pm 15:53 Sunny 88 31.1 28 -2.2 11 11 SSW 6 9 29.67 1005 10 16 0.00 0.00
4:53 pm 16:53 Sunny 88 31.1 37 2.8 16 16 Calm 29.66 1004 10 16 0.00 0.00
5:53 pm 17:53 Sunny 88 31.1 39 3.9 18 18 SW 8 13 29.65 1004 10 16 0.00 0.00
6:53 pm 18:53 Clear 87 30.6 36 2.2 16 16 W 9 15 29.66 1004 10 16 0.00 0.00
7:53 pm 19:53 Clear 85 29.4 37 2.8 18 18 SSW 8 13 29.67 1005 10 16 0.00 0.00
8:53 pm 20:53 Clear 84 28.9 35 1.7 17 17 S 9 15 29.68 1005 10 16 0.00 0.00
9:53 pm 21:53 Clear 82 27.8 38 3.3 21 21 S 8 13 29.68 1005 10 16 0.00 0.00
10:53 pm 22:53 Clear 81 27.2 41 5 24 24 S 9 15 29.68 1005 10 16 0.00 0.00
11:53 pm 23:53 Clear 80 26.7 43 6.1 27 27 SSW 12 19 29.68 1005 10 16 0.00 0.00

Powered by AerisWeather